Date String (YYYY-MM-DD hh:mm:ss) UTC,Instrument flags,absolute air pressure of the measurement (hPa),sample flow rate (lpm),inlet stack bypass flow (lpm),air temperature of the measurement (°C),ambient temperature measured by the external sensor (°C),aerosol sample conditioner tube jacket temperature (°C),OPC LED temperature (°C),internal box temperature (°C),relative humidity of the measurement (%),span deviation,mass concentration of particles derived from Lorenz-Mie calculation of OPC scattering (μg/m³),mass concentration of particles derived from Lorenz-Mie calculation of OPC scattering (μg/m³),mass concentration of particles derived from Lorenz-Mie calculation of OPC scattering (μg/m³)
DateTimeUTC,F1_M11,P_M11,Q1_M11,Q2_M11,T1_M11,T2_M11,T3_M11,T4_M11,T5_M11,U1_M11,ZSPAN_M11,X0_M11,X2_M11,X1_M11
2023-09-11 21:00:00,SystemResetWarning,0837.0,5.00,000.00,028.6,027.3,000.0,036.9,030.2,30.3,-000.7,0011.49,0006.48,0006.10
2023-09-11 21:01:00,SystemResetWarning,0837.0,5.00,000.00,028.6,027.4,000.0,036.9,030.3,29.4,-000.9,0011.60,0006.47,0006.09
2023-09-11 21:02:00,SystemResetWarning,0836.9,5.01,000.00,028.7,027.6,000.0,037.0,030.3,28.4,-000.4,0011.61,0006.50,0006.09
2023-09-11 21:03:00,SystemResetWarning,0837.0,5.00,000.00,028.7,027.7,000.0,037.0,030.4,28.6,-000.4,0011.56,0006.50,0006.09
2023-09-11 21:04:00,SystemResetWarning,0836.9,5.00,000.00,028.8,027.8,000.0,037.0,030.4,29.6,-000.3,0011.46,0006.45,0006.07
2023-09-11 21:05:00,SystemResetWarning,0836.9,4.99,000.00,028.8,026.9,000.0,037.0,030.3,30.2,-000.3,0011.33,0006.38,0006.03
2023-09-11 21:06:00,SystemResetWarning,0836.9,4.99,000.00,028.7,025.3,000.0,036.9,030.0,30.2,-000.2,0011.35,0006.36,0006.00
2023-09-11 21:07:00,SystemResetWarning,0836.8,5.00,000.00,028.6,024.5,000.0,036.8,029.9,29.8,-000.4,0011.29,0006.34,0005.98
2023-09-11 21:08:00,SystemResetWarning,0836.8,5.01,000.00,028.5,024.5,000.0,036.8,029.7,29.9,-000.8,0010.79,0006.34,0005.97
2023-09-11 21:09:00,SystemResetWarning,0836.8,5.01,000.00,028.4,024.8,000.0,036.8,029.6,30.0,-000.7,0010.80,0006.37,0005.97
2023-09-11 21:10:00,SystemResetWarning,0836.8,5.00,000.00,028.4,025.2,000.0,036.8,029.7,29.9,-000.8,0010.41,0006.32,0005.96
2023-09-11 21:11:00,SystemResetWarning,0836.8,5.00,000.00,028.3,025.7,000.0,036.8,029.7,30.1,-001.1,0009.82,0006.28,0005.93
2023-09-11 21:12:00,SystemResetWarning,0836.8,5.00,000.00,028.3,026.0,000.0,036.8,029.8,29.4,-001.0,0009.54,0006.23,0005.88
2023-09-11 21:13:00,SystemResetWarning,0836.8,5.00,000.00,028.4,026.4,000.0,036.8,029.9,29.3,-001.0,0009.41,0006.21,0005.85
2023-09-11 21:14:00,SystemResetWarning,0836.7,4.99,000.00,028.4,026.6,000.0,036.8,030.0,29.5,-001.0,0009.32,0006.14,0005.80
2023-09-11 21:15:00,SystemResetWarning,0836.7,4.99,000.00,028.4,026.9,000.0,036.8,030.0,30.1,-001.2,0009.33,0006.11,0005.76
2023-09-11 21:16:00,SystemResetWarning,0836.7,5.00,000.00,028.4,027.1,000.0,036.8,030.1,29.7,-001.3,0009.55,0006.11,0005.73
2023-09-11 21:17:00,SystemResetWarning,0836.7,5.00,000.00,028.5,027.3,000.0,036.8,030.1,30.1,-001.0,0009.52,0006.11,0005.74
2023-09-11 21:18:00,SystemResetWarning,0836.6,5.01,000.00,028.5,027.4,000.0,036.8,030.2,29.9,-000.8,0009.57,0006.14,0005.74
2023-09-11 21:19:00,SystemResetWarning,0836.6,5.00,000.00,028.6,027.5,000.0,036.8,030.3,29.3,-000.4,0009.54,0006.12,0005.75
2023-09-11 21:20:00,SystemResetWarning,0836.6,4.99,000.00,028.6,027.6,000.0,036.9,030.3,29.7,-000.6,0009.56,0006.15,0005.80
2023-09-11 21:21:00,SystemResetWarning,0836.6,4.99,000.00,028.7,027.7,000.0,036.9,030.4,30.1,-000.6,0009.60,0006.19,0005.84
2023-09-11 21:22:00,SystemResetWarning,0836.6,4.99,000.00,028.7,027.6,000.0,036.9,030.4,30.5,-000.6,0009.71,0006.25,0005.90
2023-09-11 21:23:00,SystemResetWarning,0836.6,5.00,000.00,028.7,026.2,000.0,036.9,030.1,30.0,-000.4,0009.81,0006.32,0005.97
2023-09-11 21:24:00,SystemResetWarning,0836.6,5.00,000.00,028.6,025.3,000.0,036.8,030.0,30.0,-000.3,0009.90,0006.36,0006.01
2023-09-11 21:25:00,SystemResetWarning,0836.6,5.01,000.00,028.5,025.2,000.0,036.8,029.9,29.9,-000.3,0010.02,0006.42,0006.05
2023-09-11 21:26:00,SystemResetWarning,0836.5,5.01,000.00,028.5,025.5,000.0,036.8,029.8,29.9,-000.4,0010.02,0006.43,0006.06
2023-09-11 21:27:00,SystemResetWarning,0836.5,4.99,000.00,028.4,025.8,000.0,036.8,029.8,29.5,-000.5,0009.90,0006.46,0006.10
2023-09-11 21:28:00,SystemResetWarning,0836.5,4.99,000.00,028.4,026.1,000.0,036.8,029.9,29.9,-000.7,0009.95,0006.48,0006.11
2023-09-11 21:29:00,SystemResetWarning,0836.5,5.00,000.00,028.5,026.5,000.0,036.8,030.0,29.6,-000.7,0009.97,0006.48,0006.10
2023-09-11 21:30:00,SystemResetWarning,0836.5,5.01,000.00,028.5,026.7,000.0,036.8,030.1,30.1,-001.2,0009.97,0006.48,0006.08
2023-09-11 21:31:00,SystemResetWarning,0836.6,5.01,000.00,028.5,027.0,000.0,036.8,030.1,30.5,-001.2,0009.85,0006.41,0006.02
2023-09-11 21:32:00,SystemResetWarning,0836.6,5.00,000.00,028.5,027.2,000.0,036.8,030.2,30.6,-001.0,0009.79,0006.37,0005.97
2023-09-11 21:33:00,SystemResetWarning,0836.6,5.00,000.00,028.6,027.3,000.0,036.9,030.3,29.8,-000.8,0009.73,0006.32,0005.91
2023-09-11 21:34:00,SystemResetWarning,0836.6,4.99,000.00,028.6,027.5,000.0,036.9,030.3,29.2,-001.0,0009.70,0006.27,0005.86
2023-09-11 21:35:00,SystemResetWarning,0836.6,5.00,000.00,028.7,027.6,000.0,036.9,030.4,29.1,-001.2,0009.58,0006.22,0005.81
2023-09-11 21:36:00,SystemResetWarning,0836.6,5.00,000.00,028.7,027.7,000.0,036.9,030.4,28.9,-001.3,0009.56,0006.19,0005.79
2023-09-11 21:37:00,SystemResetWarning,0836.6,4.99,000.00,028.7,026.8,000.0,036.9,030.3,29.5,-001.3,0009.53,0006.17,0005.76
2023-09-11 21:38:00,SystemResetWarning,0836.6,5.00,000.00,028.6,025.1,000.0,036.8,029.9,29.4,-001.2,0009.41,0006.12,0005.72
2023-09-11 21:39:00,SystemResetWarning,0836.5,5.00,000.00,028.5,024.3,000.0,036.7,029.8,28.8,-001.3,0009.31,0006.08,0005.69
2023-09-11 21:40:00,SystemResetWarning,0836.5,5.02,000.00,028.4,024.3,000.0,036.7,029.7,29.3,-001.3,0009.25,0006.04,0005.67
2023-09-11 21:41:00,SystemResetWarning,0836.6,4.99,000.00,028.3,024.7,000.0,036.7,029.6,29.5,-001.1,0009.18,0005.99,0005.63
2023-09-11 21:42:00,SystemResetWarning,0836.6,4.99,000.00,028.3,025.1,000.0,036.7,029.6,29.6,-001.2,0009.24,0005.98,0005.60
2023-09-11 21:43:00,SystemResetWarning,0836.6,5.00,000.00,028.3,025.6,000.0,036.7,029.7,29.4,-001.5,0009.23,0005.97,0005.58
2023-09-11 21:44:00,SystemResetWarning,0836.5,5.01,000.00,028.3,025.9,000.0,036.7,029.8,29.6,-001.6,0009.22,0005.97,0005.58
2023-09-11 21:45:00,SystemResetWarning,0836.5,5.01,000.00,028.3,026.3,000.0,036.7,029.8,29.3,-001.4,0009.83,0005.97,0005.57
2023-09-11 21:46:00,SystemResetWarning,0836.5,5.00,000.00,028.3,026.6,000.0,036.7,029.9,28.9,-001.4,0010.08,0005.96,0005.57
2023-09-11 21:47:00,SystemResetWarning,0836.5,5.00,000.00,028.3,026.8,000.0,036.7,029.9,29.1,-001.4,0010.02,0005.95,0005.58
2023-09-11 21:48:00,SystemResetWarning,0836.5,5.01,000.00,028.4,027.0,000.0,036.7,030.0,29.7,-000.9,0010.06,0006.00,0005.62
2023-09-11 21:49:00,SystemResetWarning,0836.5,5.00,000.00,028.4,027.2,000.0,036.7,030.1,30.3,-000.5,0010.25,0006.05,0005.65
2023-09-11 21:50:00,SystemResetWarning,0836.5,5.00,000.00,028.5,027.3,000.0,036.8,030.2,30.4,-000.3,0010.28,0006.06,0005.65
2023-09-11 21:51:00,SystemResetWarning,0836.5,5.00,000.00,028.5,027.5,000.0,036.8,030.2,30.2,-000.2,0010.30,0006.06,0005.63
2023-09-11 21:52:00,SystemResetWarning,0836.5,5.00,000.00,028.6,027.6,000.0,036.8,030.3,30.7,-000.0,0010.25,0006.05,0005.63
2023-09-11 21:53:00,SystemResetWarning,0836.5,4.99,000.00,028.6,027.7,000.0,036.8,030.3,30.6,-000.1,0010.17,0006.05,0005.64
2023-09-11 21:54:00,SystemResetWarning,0836.5,4.99,000.00,028.6,026.9,000.0,036.8,030.3,30.0,0000.3,0010.22,0006.09,0005.68
2023-09-11 21:55:00,SystemResetWarning,0836.5,5.01,000.00,028.6,025.5,000.0,036.7,030.0,30.2,0000.5,0010.21,0006.09,0005.71
2023-09-11 21:56:00,SystemResetWarning,0836.5,5.01,000.00,028.5,025.1,000.0,036.7,029.9,30.6,0000.5,0009.74,0006.09,0005.73
2023-09-11 21:57:00,SystemResetWarning,0836.5,5.00,000.00,028.4,025.3,000.0,036.7,029.7,29.5,0000.6,0009.74,0006.11,0005.73
2023-09-11 21:58:00,SystemResetWarning,0836.4,5.00,000.00,028.4,025.6,000.0,036.7,029.7,29.5,0000.6,0009.79,0006.08,0005.72
2023-09-11 21:59:00,SystemResetWarning,0836.4,5.00,000.00,028.4,026.0,000.0,036.7,029.8,30.1,0000.4,0009.88,0006.07,0005.70
